Regional Weather Roundup
Issued by NWS

Home | Current Version | Previous Version | Text Only | Print | Product List | Glossary Off
Versions: 1 2 3 4 5 6 7 8 9 10 11 12 13 14 15 16 17 18 19 20 21 22 23 24 25 26 27 28 29 30 31 32 33 34 35 36 37 38 39 40 41 42 43 44 45 46 47 48 49 50

000
ASUS45 KTFX 240910
RWRMT
MONTANA REGIONAL WEATHER ROUNDUP
NATIONAL WEATHER SERVICE GREAT FALLS MT
300 AM MDT TUE MAY 24 2016

NOTE: "FAIR" INDICATES FEW OR NO CLOUDS BELOW 12000 FEET WITH NO
SIGNIFICANT WEATHER AND/OR OBSTRUCTIONS TO VISIBILITY.

MTZ001>007-043-241000-
WEST OF THE DIVIDE

CITY           SKY/WX    TMP DP  RH WIND       PRES   REMARKS
KALISPELL      LGT RAIN  44  44 100 SE5       29.89S
MISSOULA       LGT RAIN  43  42  97 CALM      29.92S
BUTTE          LGT RAIN  38  36  92 CALM      29.91F
MULLAN PASS    LGT RAIN  34  34 100 W3        29.88S VSB 1/4
ANACONDA         N/A     39  37  93 S6        29.91S
DEER LODGE       N/A     39  39 100 CALM      29.92S
EUREKA           N/A     45  43  93 CALM      29.90S
HAMILTON         N/A     45  43  93 W3        29.90S
LIBBY            N/A     46  46 100 CALM      29.90S
PLAINS           N/A     46  42  86 CALM      29.91S
$$

MTZ008-052>055-241000-
SOUTHWEST MONTANA

CITY           SKY/WX    TMP DP  RH WIND       PRES   REMARKS
BOZEMAN        LGT RAIN  41  39  93 SE5       29.93S
DILLON         CLOUDY    38  35  89 CALM      29.90S
ENNIS          CLOUDY    37  36  93 CALM      29.97R
TWIN BRIDGES     N/A     41  36  82 NW5       29.90F
$$

MTZ009-010-012-014-046-048-049-054-241000-
EAST SLOPES AND CENTRAL MONTANA

CITY           SKY/WX    TMP DP  RH WIND       PRES   REMARKS
CUT BANK       CLOUDY    40  38  93 W6        29.87S
GREAT FALLS    CLOUDY    40  39  97 SW5       29.89S
MALMSTROM AFB  MOCLDY    43  41  94 W5        29.90R
HELENA         LGT RAIN  44  40  85 CALM      29.90S
CHOTEAU          N/A     39  39 100 SW5       29.89F
$$

MTZ011-013-016-021-045-047-050-051-241000-
NORTH CENTRAL MONTANA

CITY           SKY/WX    TMP DP  RH WIND       PRES   REMARKS
HAVRE          CLOUDY    47  43  86 SW8       29.83S
LEWISTOWN      CLOUDY    43  39  86 W3        29.87F
N BAR RANCH      N/A     39  36  87 W9        29.89S
CHINOOK          N/A     48  43  81 W10       29.81F
$$

MTZ017>020-022>027-061-062-241000-
NORTHEAST MONTANA

CITY           SKY/WX    TMP DP  RH WIND       PRES   REMARKS
GLASGOW        MOCLDY    45  41  86 SW5       29.80R
JORDAN           N/A     44  41  89 W7        29.84R
SIDNEY         PTCLDY    45  39  81 CALM      29.82R
WOLF POINT     PTCLDY    44  41  89 CALM      29.80R
PLENTYWOOD       N/A     48  41  76 W8        29.77R
POPLAR           N/A     45  41  87 SW3       29.80R
$$

MTZ028>42-056>058-241000-
SOUTHCENTRAL AND SOUTHEAST MONTANA

CITY           SKY/WX    TMP DP  RH WIND       PRES   REMARKS
BAKER          MOCLDY    45  37  73 W5        29.87R
BILLINGS       CLOUDY    48  39  71 CALM      29.89S
LIVINGSTON     CLOUDY    42  36  79 SW5       29.90S
MILES CITY     MOCLDY    50  40  68 W3        29.86R
FORSYTH          N/A     48  43  81 CALM      29.86R
$$

REGIONAL REPORTS...DAKOTAS

CITY           SKY/WX    TMP DP  RH WIND       PRES   REMARKS
WILLISTON      CLEAR     45  39  79 SW3       29.80R
MINOT          PTCLDY    51  41  68 SW5       29.78R
DICKINSON      PTCLDY    38  33  82 S6        29.81R
BEACH            N/A     41  39  93 S7        29.87R
CROSBY           N/A     45  45 100 SW9       29.80R
WATFORD CITY     N/A     41  37  87 SW5       29.82R
BISMARCK       PTCLDY    51  47  86 SW3       29.79R
GRAND FORKS    LGT RAIN  58  51  78 W22       29.76S
FARGO          MOCLDY    63  47  55 N15       29.78R
BUFFALO SD       N/A     48  35  60 W7        29.80R
RAPID CITY     CLEAR     49  35  58 NW14      29.84S
$$

REGIONAL REPORTS...WYOMING/IDAHO/WASHINGTON

CITY           SKY/WX    TMP DP  RH WIND       PRES   REMARKS
GILLETTE       CLEAR     32  29  88 S3        29.88F
SHERIDAN       CLEAR     34  30  85 W3        29.89R
BUFFALO WY     CLEAR     40  32  73 W7        29.91S
CODY           CLOUDY    41  34  75 CALM      29.89S
YELLOWSTONE LA   N/A     28  24  85 CALM      29.96F
IDAHO FALLS    CLOUDY    41  34  76 CALM      29.88S
SALMON         CLOUDY    41  36  81 CALM      29.88R
BOISE          CLEAR     50  37  61 CALM      29.83S
SPOKANE        LGT RAIN  49  45  86 VRB3      29.86S
$$

REGIONAL REPORTS...ALBERTA

CITY           SKY/WX    TMP DP  RH WIND       PRES   REMARKS
EDMONTON       CLOUDY    46  41  81 NE3       29.84S
CALGARY        MOCLDY    43  39  87 W2        29.85F
LETHBRIDGE     CLOUDY    43  41  93 W6        29.86S
MEDICINE HAT   CLOUDY    48  45  87 W10G17    29.82R
WATERTON GATE    N/A     39  36  87 S5          N/A
CARDSTON         N/A     43  37  81 W6          N/A
MILK RIVER       N/A     43  39  87 NW8         N/A
$$

REGIONAL REPORTS...SASKATCHEWAN

CITY           SKY/WX    TMP DP  RH WIND       PRES   REMARKS
SWIFT CURRENT  CLOUDY    46  46 100 NW9       29.72R FOG
REGINA         MOCLDY    43  43 100 S7        29.70R
SASKATOON      LGT RAIN  50  50 100 NE15      29.75R
CYPRESS HILLS    N/A     41  39  93 NW5         N/A
VAL MARIE        N/A     46  45  93 W13         N/A
ROCKGLEN         N/A     46  45  93 W14         N/A
ASSINIBOIA       N/A     46  46 100 NW2         N/A
$$



USA.gov is the U.S. government's official web portal to all federal, state and local government web resources and services.